Find Starling 2

NORAD ID: 57387 Int'l Des: 2023-100 Owner: ARC Country: US operational
LEOCIRCULARRETROGRADE

現在のビュー

3D地球を読み込み中...

Starling 2について

説明を読み込み中...

次回通過

Passes for default location (London). Set your location on the main map for personalized predictions.

高度履歴

Loading altitude history...

軌道要素

1 57387U 23100B 26151.51430824 .00006970 00000-0 47568-3 0 9993
2 57387 99.5089 165.3828 0005603 166.2340 193.9035 15.06633291157392
Epoch: May 31, 2026 • Age: 8 hours

現在のステータス

高度 559.0 km
速度 7.59 km/s
衛星直下点 80.14°N, 107.39°W
打ち上げ日 Jul 18, 2023
運用期間 2.8 years
タイプ other

技術仕様

分類 Payload
質量 12.00 kg
乾燥質量 12.00 kg
総質量 12.00 kg
長さ 0.30 m
直径 0.20 m
スパン 0.50 m
形状 Box + 2 pan
製造者 BLCAN
バスタイプ Cubesat 6U
フェーズステータス In Orbit
所有者/国 ARC/US

Most Searched